Location: Newark
(44.1667°N, 8.2500°E)
Time: 11:27:05
(UTC+00:00)

Explorer 11/Cluster Stage 4 - Pass Details

Date: 17 December 2019
Orbit: 467 x 1259 km, 28.8° (Epoch: 18 January)

Event Time Altitude Azimuth Distance (km) Brightness Sun altitude
Rises 05:49:35 0° 212° (SSW) 4,175 10.2 -11.5°
Reaches altitude 10° 05:53:56 10° 192° (SSW) 3,226 9.8 -10.8°
Maximum altitude 05:58:19 16° 160° (SSE) 2,798 10.0 -10.1°
Drops below altitude 10° 06:02:35 10° 127° (SE) 3,133 11.1 -9.4°
Sets 06:06:42 0° 107° (ESE) 3,990 12.4 -8.7°
